| time (UTC) | temp F | wind direction | speed MPH | gust MPH | rain 1hr in | rain 24hr in | rain mn in | humidity % | barometer mb |
| 20260509174539 | 55 | 13 | 7.0 | 17.0 | 0.00 | 0.00 | 0.00 | 47 | 1013.4 |
| 20260509173037 | 54 | 346 | 4.0 | 15.0 | 0.00 | 0.00 | 0.00 | 55 | 1013.3 |
| 20260509171536 | 54 | 338 | 0.0 | 15.0 | 0.00 | 0.00 | 0.00 | 57 | 1013.2 |
| 20260509170036 | 53 | 5 | 8.0 | 14.0 | 0.00 | 0.00 | 0.00 | 63 | 1013.2 |
| 20260509164533 | 54 | 340 | 8.0 | 14.0 | 0.00 | 0.00 | 0.00 | 62 | 1012.9 |
| 20260509163031 | 53 | 350 | 10.0 | 17.0 | 0.00 | 0.00 | 0.00 | 64 | 1012.6 |
| 20260509161535 | 52 | 9 | 9.0 | 14.0 | 0.00 | 0.00 | 0.00 | 65 | 1012.6 |
| 20260509160027 | 53 | 355 | 9.0 | 16.0 | 0.00 | 0.00 | 0.00 | 64 | 1012.3 |
| 20260509154524 | 52 | 15 | 9.0 | 14.0 | 0.00 | 0.00 | 0.00 | 64 | 1012.1 |
| 20260509153023 | 52 | 30 | 8.0 | 15.0 | 0.00 | 0.00 | 0.00 | 63 | 1011.8 |
| 20260509151519 | 53 | 350 | 7.0 | 16.0 | 0.00 | 0.00 | 0.00 | 62 | 1011.5 |
| 20260509150017 | 53 | 9 | 10.0 | 16.0 | 0.00 | 0.00 | 0.00 | 61 | 1011.2 |
| 20260509144519 | 53 | 360 | 8.0 | 13.0 | 0.00 | 0.00 | 0.00 | 61 | 1010.9 |
| 20260509143012 | 52 | 34 | 7.0 | 15.0 | 0.00 | 0.00 | 0.00 | 62 | 1010.8 |
| 20260509141511 | 53 | 355 | 9.0 | 13.0 | 0.00 | 0.00 | 0.00 | 61 | 1010.4 |
| 20260509140139 | 53 | 15 | 5.0 | 11.0 | 0.00 | 0.00 | 0.00 | 59 | 1010.2 |
| 20260509134531 | 52 | 96 | 2.0 | 6.0 | 0.00 | 0.00 | 0.00 | 60 | 1009.9 |
| 20260509133027 | 51 | 159 | 0.0 | 0.0 | 0.00 | 0.00 | 0.00 | 62 | 1009.6 |
| 20260509131524 | 48 | 159 | 1.0 | 3.0 | 0.00 | 0.00 | 0.00 | 65 | 1009.4 |
| 20260509130041 | 45 | 161 | 2.0 | 6.0 | 0.00 | 0.00 | 0.00 | 69 | 1009.3 |
| 20260509124523 | 44 | 133 | 2.0 | 5.0 | 0.00 | 0.00 | 0.00 | 71 | 1009.1 |
| 20260509123022 | 43 | 81 | 1.0 | 3.0 | 0.00 | 0.00 | 0.00 | 71 | 1009.0 |
| 20260509121516 | 44 | 80 | 1.0 | 5.0 | 0.00 | 0.00 | 0.00 | 68 | 1008.6 |
| 20260509120016 | 42 | 167 | 3.0 | 8.0 | 0.00 | 0.00 | 0.00 | 73 | 1008.1 |
| 20260509114510 | 41 | 176 | 4.0 | 8.0 | 0.00 | 0.00 | 0.00 | 70 | 1008.1 |
| 20260509113009 | 42 | 5 | 0.0 | 4.0 | 0.00 | 0.00 | 0.00 | 70 | 1007.9 |
| 20260509111503 | 43 | 5 | 0.0 | 3.0 | 0.00 | 0.00 | 0.00 | 68 | 1007.7 |
| 20260509110059 | 43 | 355 | 1.0 | 3.0 | 0.00 | 0.00 | 0.00 | 67 | 1007.2 |
| 20260509104558 | 44 | 355 | 0.0 | 3.0 | 0.00 | 0.00 | 0.00 | 67 | 1007.1 |
| 20260509103101 | 44 | 355 | 0.0 | 0.0 | 0.00 | 0.00 | 0.00 | 65 | 1006.9 |
| 20260509101552 | 45 | 355 | 0.0 | 0.0 | 0.00 | 0.00 | 0.00 | 62 | 1006.8 |
| 20260509100047 | 47 | 355 | 0.0 | 5.0 | 0.00 | 0.00 | 0.00 | 60 | 1006.6 |
| 20260509094543 | 49 | 351 | 0.0 | 3.0 | 0.00 | 0.00 | 0.00 | 57 | 1006.2 |
| 20260509093042 | 49 | 351 | 1.0 | 2.0 | 0.00 | 0.00 | 0.00 | 56 | 1005.8 |
| 20260509091540 | 50 | 350 | 0.0 | 4.0 | 0.00 | 0.00 | 0.00 | 55 | 1005.7 |
| 20260509090037 | 50 | 342 | 2.0 | 8.0 | 0.00 | 0.00 | 0.00 | 54 | 1006.0 |
| 20260509084536 | 51 | 355 | 5.0 | 10.0 | 0.00 | 0.00 | 0.00 | 52 | 1005.9 |
| 20260509083036 | 53 | 331 | 10.0 | 14.0 | 0.00 | 0.00 | 0.00 | 49 | 1005.8 |
| 20260509081528 | 56 | 347 | 10.0 | 30.0 | 0.00 | 0.00 | 0.00 | 44 | 1005.1 |
| 20260509080032 | 59 | 232 | 0.0 | 3.0 | 0.00 | 0.00 | 0.00 | 40 | 1003.7 |
| 20260509074520 | 60 | 232 | 1.0 | 3.0 | 0.00 | 0.00 | 0.00 | 39 | 1003.8 |
| 20260509073018 | 60 | 231 | 3.0 | 6.0 | 0.00 | 0.00 | 0.00 | 38 | 1003.9 |
| 20260509071517 | 60 | 221 | 6.0 | 10.0 | 0.00 | 0.00 | 0.00 | 38 | 1004.0 |
| 20260509070016 | 60 | 201 | 9.0 | 13.0 | 0.00 | 0.00 | 0.00 | 38 | 1004.0 |
| 20260509064516 | 58 | 190 | 7.0 | 11.0 | 0.00 | 0.00 | 0.00 | 40 | 1004.1 |
| 20260509063011 | 58 | 211 | 5.0 | 9.0 | 0.00 | 0.00 | 0.00 | 40 | 1004.2 |
| 20260509061511 | 58 | 203 | 0.0 | 12.0 | 0.00 | 0.00 | 0.00 | 40 | 1004.3 |
| 20260509060005 | 54 | 205 | 8.0 | 11.0 | 0.00 | 0.00 | 0.00 | 46 | 1004.5 |
| 20260509054503 | 52 | 209 | 0.0 | 1.0 | 0.00 | 0.00 | 0.00 | 49 | 1004.5 |
| 20260509053001 | 53 | 196 | 0.0 | 0.0 | 0.00 | 0.00 | 0.00 | 47 | 1004.7 |
| 20260509051600 | 52 | 188 | 0.0 | 2.0 | 0.00 | 0.00 | 0.00 | 45 | 1004.8 |
| 20260509050136 | 54 | 188 | 0.0 | 3.0 | 0.00 | 0.00 | 0.00 | 44 | 1004.8 |
| 20260509044603 | 53 | 174 | 5.0 | 7.0 | 0.00 | 0.00 | 0.00 | 44 | 1005.1 |
| 20260509043056 | 54 | 179 | 0.0 | 0.0 | 0.00 | 0.00 | 0.00 | 43 | 1005.3 |
| 20260509041556 | 55 | 179 | 0.0 | 4.0 | 0.00 | 0.00 | 0.00 | 42 | 1005.5 |
| 20260509040058 | 55 | 184 | 0.0 | 5.0 | 0.00 | 0.00 | 0.00 | 42 | 1005.5 |
| 20260509034555 | 53 | 169 | 0.0 | 0.0 | 0.00 | 0.00 | 0.00 | 46 | 1005.6 |
| 20260509033054 | 55 | 169 | 0.0 | 1.0 | 0.00 | 0.00 | 0.00 | 43 | 1005.6 |
| 20260509031554 | 55 | 168 | 0.0 | 0.0 | 0.00 | 0.00 | 0.00 | 42 | 1005.5 |
| 20260509030053 | 55 | 168 | 0.0 | 0.0 | 0.00 | 0.00 | 0.00 | 43 | 1005.4 |
| 20260509024552 | 56 | 167 | 0.0 | 0.0 | 0.00 | 0.00 | 0.00 | 42 | 1005.4 |
| 20260509023101 | 57 | 144 | 0.0 | 0.0 | 0.00 | 0.00 | 0.00 | 40 | 1005.3 |
| 20260509021552 | 58 | 355 | 0.0 | 2.0 | 0.00 | 0.00 | 0.00 | 38 | 1005.4 |
| 20260509020049 | 61 | 355 | 0.0 | 0.0 | 0.00 | 0.00 | 0.00 | 35 | 1005.3 |
| 20260509014549 | 63 | 355 | 0.0 | 0.0 | 0.00 | 0.00 | 0.00 | 33 | 1005.1 |
| 20260509013053 | 65 | 355 | 0.0 | 0.0 | 0.00 | 0.00 | 0.00 | 32 | 1005.1 |
| 20260509011547 | 66 | 360 | 0.0 | 1.0 | 0.00 | 0.00 | 0.00 | 30 | 1005.2 |
| 20260509010047 | 67 | 351 | 0.0 | 8.0 | 0.00 | 0.00 | 0.00 | 29 | 1005.2 |
| 20260509004544 | 67 | 355 | 2.0 | 12.0 | 0.00 | 0.00 | 0.00 | 27 | 1005.2 |
| 20260509003056 | 67 | 340 | 0.0 | 9.0 | 0.00 | 0.00 | 0.00 | 28 | 1005.3 |
| 20260509001541 | 68 | 355 | 5.0 | 14.0 | 0.00 | 0.00 | 0.00 | 27 | 1005.4 |
| 20260509000043 | 67 | 5 | 4.0 | 13.0 | 0.00 | 0.00 | 0.00 | 27 | 1005.5 |
| 20260508234541 | 69 | 344 | 11.0 | 16.0 | 0.00 | 0.00 | 0.00 | 25 | 1005.6 |
| 20260508233037 | 70 | 344 | 9.0 | 19.0 | 0.00 | 0.00 | 0.00 | 25 | 1005.8 |
| 20260508231536 | 69 | 324 | 10.0 | 19.0 | 0.00 | 0.00 | 0.00 | 26 | 1005.9 |
| 20260508230040 | 68 | 355 | 11.0 | 20.0 | 0.00 | 0.00 | 0.00 | 25 | 1006.0 |
| 20260508224534 | 70 | 355 | 10.0 | 20.0 | 0.00 | 0.00 | 0.00 | 25 | 1006.3 |
| 20260508223035 | 69 | 5 | 14.0 | 26.0 | 0.00 | 0.00 | 0.00 | 25 | 1006.4 |
| 20260508221532 | 69 | 348 | 9.0 | 20.0 | 0.00 | 0.00 | 0.00 | 26 | 1006.5 |
| 20260508220026 | 70 | 360 | 12.0 | 22.0 | 0.00 | 0.00 | 0.00 | 25 | 1006.6 |
| 20260508214526 | 69 | 12 | 14.0 | 23.0 | 0.00 | 0.00 | 0.00 | 24 | 1006.7 |
| 20260508213026 | 69 | 9 | 16.0 | 27.0 | 0.00 | 0.00 | 0.00 | 25 | 1006.8 |
| 20260508211523 | 69 | 321 | 15.0 | 30.0 | 0.00 | 0.00 | 0.00 | 25 | 1007.1 |
| 20260508210020 | 70 | 333 | 10.0 | 26.0 | 0.00 | 0.00 | 0.00 | 26 | 1007.3 |
| 20260508204518 | 69 | 360 | 8.0 | 26.0 | 0.00 | 0.00 | 0.00 | 26 | 1007.4 |
| 20260508203019 | 68 | 318 | 18.0 | 30.0 | 0.00 | 0.00 | 0.00 | 26 | 1007.6 |
| 20260508201522 | 70 | 348 | 20.0 | 32.0 | 0.00 | 0.00 | 0.00 | 25 | 1007.7 |
| 20260508200020 | 68 | 5 | 19.0 | 33.0 | 0.00 | 0.00 | 0.00 | 26 | 1007.7 |
| 20260508194512 | 69 | 21 | 17.0 | 28.0 | 0.00 | 0.00 | 0.00 | 26 | 1007.7 |
| 20260508193017 | 69 | 5 | 18.0 | 30.0 | 0.00 | 0.00 | 0.00 | 26 | 1007.9 |
| 20260508191515 | 68 | 342 | 17.0 | 33.0 | 0.00 | 0.00 | 0.00 | 27 | 1008.2 |
| 20260508190009 | 69 | 326 | 20.0 | 31.0 | 0.00 | 0.00 | 0.00 | 26 | 1008.1 |
| 20260508184509 | 68 | 340 | 17.0 | 36.0 | 0.00 | 0.00 | 0.00 | 27 | 1008.3 |
| 20260508183005 | 69 | 331 | 17.0 | 30.0 | 0.00 | 0.00 | 0.00 | 26 | 1008.4 |
| 20260508181632 | 68 | 338 | 21.0 | 31.0 | 0.00 | 0.00 | 0.00 | 28 | 1008.6 |
| 20260508180043 | 67 | 339 | 18.0 | 34.0 | 0.00 | 0.00 | 0.00 | 31 | 1008.6 |